Location: Clanezzo
(45.7500°N, 9.6000°E)
Time: 13:32:40
(UTC+00:00)

Cosmos 1666 - Pass Details

Date: 12 May 2021
Orbit: 495 x 519 km, 82.5° (Epoch: 19 June)

Event Time Altitude Azimuth Distance (km) Brightness Sun altitude
Rises 20:36:08 0° 351° (N) 2,599 7.3 -16.2°
Reaches altitude 10° 20:38:16 10° 352° (N) 1,709 6.2 -16.4°
Maximum altitude 20:42:01 84° 81° (E) 506 2.5 -16.8°
Enters shadow 20:43:23 37° 167° (SSE) 785 3.1 -17.0°
